Regional Weather Roundup
Issued by NWS

Home | Current Version | Previous Version | Text Only | Print | Product List | Glossary On
Versions: 1 2 3 4 5 6 7 8 9 10 11 12 13 14 15 16 17 18 19 20 21 22 23 24 25 26 27 28 29 30 31 32 33 34 35 36 37 38 39 40 41 42 43 44 45 46 47 48 49 50
000
ASUS44 KLIX 031010
RWRLA
LOUISIANA WEATHER ROUNDUP
NATIONAL WEATHER SERVICE NEW ORLEANS LA
500 AM CDT TUE AUG 03 2021

NOTE: "FAIR" INDICATES FEW OR NO CLOUDS BELOW 12,000 FEET WITH NO
      SIGNIFICANT WEATHER AND/OR OBSTRUCTIONS TO VISIBILITY.
      SKY/WX - SKY CONDITION AND SIGNIFICANT WEATHER.
      TMP - AIR TEMPERATURE.    DP   - DEWPOINT TEMPERATURE.
      RH  - RELATIVE HUMIDITY.  PRES - PRESSURE.
      HX  - HEAT INDEX.         WCI  - WIND CHILL INDEX.

*  THESE STATIONS ARE NOT NWS OR FAA STATIONS AND ARE NOT UNDER
   NWS QUALITY CONTROL.

LAZ048-061-063-065-066-069-076-077-031100-
SOUTHEAST LOUISIANA

CITY           SKY/WX    TMP DP  RH WIND       PRES   REMARKS
N.O. INTL ARPT MOCLDY    79  75  87 W6        29.94R
N.O. DWNTWN HE PTSUNNY   80  76  87 MISG      29.95R
N.O. LAKEFRONT LGT RAIN  81  75  82 SW6       29.93F
RESERVE*       FAIR      75  74  98 CALM      29.94S
SLIDELL        CLOUDY    76  74  93 CALM      29.92S
BATON ROUGE    MOCLDY    75  75 100 CALM      29.93S
BOOTHVILLE*    NOT AVBL
BELLE CHASSE*  CLOUDY    78  78 100 CALM      29.93R
BOGALUSA*      CLOUDY    76  73  90 N3        29.95R
GALLIANO*      CLOUDY    79  74  85 NW3       29.93F
NEW ROADS*     PTSUNNY   75  75 100 CALM      29.94S FOG
GONZALES*      FAIR      76  75  98 CALM      29.93S
HAMMOND*       CLOUDY    75  75 100 CALM      29.95R FOG
HOUMA*         NOT AVBL

$$

LAZ041-044-053-054-031100-
SOUTHWEST LOUISIANA

CITY           SKY/WX    TMP DP  RH WIND       PRES   REMARKS
LAKE CHARLES   MOCLDY    77  76  96 CALM      29.93F
LAFAYETTE      MOCLDY    77  76  96 CALM      29.93F
PATTERSON      MOCLDY    76  76 100 NE3       29.93F
SALT POINT       N/A     84  75  74 SW9       29.91S
NEW IBERIA     CLOUDY    77  77 100 SW5       29.94S
CHENAULT AIRPK CLOUDY    76  74  95 CALM      29.94S

$$

LAZ027-028-031100-
CENTRAL LOUISIANA

CITY           SKY/WX    TMP DP  RH WIND       PRES   REMARKS
FORT POLK      CLOUDY    74  74  99 CALM      29.94S
ALEXANDRIA INT CLOUDY    77  75  93 CALM      29.92F FOG
ALEXANDRIA     CLOUDY    75  73  93 CALM      29.94S FOG

$$

LAZ001-002-031100-
NORTHWEST LOUISIANA

CITY           SKY/WX    TMP DP  RH WIND       PRES   REMARKS
SHREVEPORT     CLOUDY    77  72  84 N6        29.96S
BARKSDALE AFB  MOCLDY    74  73  95 N5        29.96S
DTN SHREVEPORT CLOUDY    76  74  93 N5        29.97R

$$

LAZ014-016-031100-
NORTHEAST LOUISIANA

CITY           SKY/WX    TMP DP  RH WIND       PRES   REMARKS
MONROE         CLOUDY    76  75  97 E3        29.96S
TALLULAH       CLOUDY    78  73  84 CALM      29.96S

$$




USA.gov is the U.S. government's official web portal to all federal, state and local government web resources and services.